{"data":{"norad_id":67514,"intl_designator":"2026-012X","name":"STARLINK-36530","alt_names":[],"object_type":"PAYLOAD","status":"ACTIVE","operator":null,"country":"US","launch_date":"2026-01-18","launch_site_code":"AFETR","launch_vehicle":null,"mission":null,"orbit_class":"UNKNOWN","rcs_meters":null,"size_class":null,"mass_kg":null,"dimensions":null,"purposes":["comms"],"wikipedia_slug":null,"has_3d_model":false,"image_url":null,"decayed_at":null,"tle_current":{"epoch":"2026-09-19T10:40:54.841152Z","epoch_age_seconds":163452,"freshness":"FRESH","line1":"1 67514U 26012X   26262.44507918  .00010404  00000+0  38708-3 0  9997","line2":"2 67514  43.0083 300.2326 0004859 288.2578  71.7744 15.27573277 37393","mean_motion":15.27573277,"eccentricity":0.0004859,"inclination_deg":43.0083,"raan_deg":300.2326,"arg_perigee_deg":288.2578,"mean_anomaly_deg":71.7744,"bstar":0.00038708,"rev_number":3739,"period_min":94.26716359087,"perigee_km":479.73536708828,"apogee_km":486.40308729986,"semimajor_km":6861.2062271941,"source":"CELESTRAK","updated_at":"2026-09-20T09:00:43.562365Z"}}}